Starlink 32767

operational
NORAD ID: 62601 Int'l Des: 2025-008 Owner: SPXS Country: US Constellation: starlink
LEOCIRCULAR

关于 Starlink 32767

正在加载描述...

实时位置

正在加载3D地球...

即将过境

高度历史

Altitude vs Time

uPlot chart will show altitude changes over time

两行轨道根数

1 62601U 25008Q 25308.58936376 .00018511 00000-0 68043-3 0 9995
2 62601 43.0028 264.2720 0000364 290.6901 69.3912 15.27583513 46490
Epoch: Nov 4, 2025 • Age: 7 hours

当前状态

高度 486.4 km
速度 7.63 km/s
星下点 43.07°N, 0.51°E
发射日期 Jan 13, 2025
运行时间 0.8 years
类型 internet

技术详情

分类 Payload
质量 730.00 kg
干质量 700.00 kg
总质量 730.00 kg
长度 0.30 m
直径 4.10 m
跨度 29.00 m
形状 Box + pan
制造商 SPXS
平台类型 Starlink V2M
阶段状态 In Orbit
所有者/国家 SPXS/US

大型星座

Loading constellations...